| time (UTC) | temp F | wind direction | speed MPH | gust MPH | rain 1hr in | rain 24hr in | rain mn in | humidity % | barometer mb |
| 20260510074549 | 42 | 0 | 0.0 | 0.0 | 0.00 | 0.00 | 0.00 | 72 | 1015.9 |
| 20260510073051 | 41 | 0 | 0.0 | 0.0 | 0.00 | 0.00 | 0.00 | 73 | 1015.8 |
| 20260510071549 | 41 | 0 | 0.0 | 0.0 | 0.00 | 0.00 | 0.00 | 70 | 1015.9 |
| 20260510070052 | 42 | 0 | 0.0 | 0.0 | 0.00 | 0.00 | 0.00 | 67 | 1015.8 |
| 20260510064605 | 43 | 0 | 0.0 | 0.0 | 0.00 | 0.00 | 0.00 | 67 | 1015.8 |
| 20260510063047 | 44 | 0 | 0.0 | 0.0 | 0.00 | 0.00 | 0.00 | 62 | 1015.7 |
| 20260510061551 | 45 | 0 | 0.0 | 0.0 | 0.00 | 0.00 | 0.00 | 57 | 1015.8 |
| 20260510060052 | 45 | 0 | 0.0 | 0.0 | 0.00 | 0.00 | 0.00 | 59 | 1015.7 |
| 20260510054548 | 45 | 0 | 0.0 | 0.0 | 0.00 | 0.00 | 0.00 | 57 | 1015.6 |
| 20260510053048 | 45 | 0 | 0.0 | 0.0 | 0.00 | 0.00 | 0.00 | 54 | 1015.5 |
| 20260510051557 | 47 | 0 | 0.0 | 0.0 | 0.00 | 0.00 | 0.00 | 50 | 1015.3 |
| 20260510050048 | 48 | 0 | 0.0 | 0.0 | 0.00 | 0.00 | 0.00 | 50 | 1015.4 |
| 20260510044559 | 48 | 0 | 0.0 | 0.0 | 0.00 | 0.00 | 0.00 | 47 | 1015.5 |
| 20260510043050 | 49 | 0 | 0.0 | 0.0 | 0.00 | 0.00 | 0.00 | 45 | 1015.4 |
| 20260510041559 | 49 | 336 | 0.0 | 0.0 | 0.00 | 0.00 | 0.00 | 44 | 1015.3 |
| 20260510040049 | 50 | 0 | 0.0 | 3.0 | 0.00 | 0.00 | 0.00 | 44 | 1015.2 |
| 20260510034556 | 50 | 0 | 0.0 | 0.0 | 0.00 | 0.00 | 0.00 | 44 | 1015.0 |
| 20260510033048 | 50 | 0 | 0.0 | 0.0 | 0.00 | 0.00 | 0.00 | 44 | 1014.8 |
| 20260510031551 | 51 | 0 | 0.0 | 0.0 | 0.00 | 0.00 | 0.00 | 42 | 1014.6 |
| 20260510030057 | 52 | 0 | 0.0 | 0.0 | 0.00 | 0.00 | 0.00 | 41 | 1014.4 |
| 20260510024555 | 52 | 0 | 0.0 | 0.0 | 0.00 | 0.00 | 0.00 | 40 | 1014.1 |
| 20260510023052 | 53 | 0 | 0.0 | 3.0 | 0.00 | 0.00 | 0.00 | 39 | 1013.7 |
| 20260510021552 | 53 | 0 | 0.0 | 0.0 | 0.00 | 0.00 | 0.00 | 39 | 1013.2 |
| 20260510020050 | 53 | 0 | 0.0 | 1.0 | 0.00 | 0.00 | 0.00 | 37 | 1012.9 |
| 20260510014550 | 54 | 0 | 0.0 | 1.0 | 0.00 | 0.00 | 0.00 | 37 | 1012.6 |
| 20260510013052 | 55 | 0 | 0.0 | 5.0 | 0.00 | 0.00 | 0.00 | 35 | 1012.5 |
| 20260510011549 | 55 | 0 | 0.0 | 7.0 | 0.00 | 0.00 | 0.00 | 35 | 1012.0 |
| 20260510010050 | 56 | 279 | 0.0 | 7.0 | 0.00 | 0.00 | 0.00 | 34 | 1011.9 |
| 20260510004551 | 56 | 0 | 0.0 | 9.0 | 0.00 | 0.00 | 0.00 | 34 | 1011.6 |
| 20260510003057 | 57 | 0 | 0.0 | 7.0 | 0.00 | 0.00 | 0.00 | 32 | 1011.6 |
| 20260510001552 | 58 | 1 | 0.0 | 12.0 | 0.00 | 0.00 | 0.00 | 31 | 1011.5 |
| 20260510000048 | 58 | 326 | 4.0 | 13.0 | 0.00 | 0.00 | 0.00 | 31 | 1011.3 |
| 20260509234601 | 58 | 11 | 2.0 | 10.0 | 0.00 | 0.00 | 0.00 | 31 | 1011.1 |
| 20260509233055 | 59 | 312 | 2.0 | 8.0 | 0.00 | 0.00 | 0.00 | 31 | 1010.9 |
| 20260509231608 | 59 | 0 | 0.0 | 12.0 | 0.00 | 0.00 | 0.00 | 31 | 1010.7 |
| 20260509224548 | 59 | 309 | 1.0 | 11.0 | 0.00 | 0.00 | 0.00 | 30 | 1010.3 |
| 20260509223051 | 59 | 297 | 1.0 | 10.0 | 0.00 | 0.00 | 0.00 | 30 | 1010.3 |
| 20260509221551 | 59 | 338 | 2.0 | 13.0 | 0.00 | 0.00 | 0.00 | 30 | 1010.2 |
| 20260509220047 | 59 | 291 | 1.0 | 12.0 | 0.00 | 0.00 | 0.00 | 32 | 1010.0 |
| 20260509214548 | 59 | 341 | 3.0 | 11.0 | 0.00 | 0.00 | 0.00 | 32 | 1010.0 |
| 20260509213049 | 59 | 274 | 3.0 | 15.0 | 0.00 | 0.00 | 0.00 | 31 | 1009.8 |
| 20260509211552 | 60 | 326 | 1.0 | 9.0 | 0.00 | 0.00 | 0.00 | 32 | 1009.8 |
| 20260509210058 | 59 | 0 | 1.0 | 10.0 | 0.00 | 0.00 | 0.00 | 32 | 1009.7 |
| 20260509204540 | 59 | 248 | 0.0 | 9.0 | 0.00 | 0.00 | 0.00 | 31 | 1009.5 |
| 20260509203050 | 59 | 291 | 2.0 | 13.0 | 0.00 | 0.00 | 0.00 | 32 | 1009.5 |
| 20260509201557 | 59 | 323 | 3.0 | 11.0 | 0.00 | 0.00 | 0.00 | 33 | 1009.4 |
| 20260509200054 | 59 | 0 | 1.0 | 10.0 | 0.00 | 0.00 | 0.00 | 33 | 1009.4 |
| 20260509194547 | 59 | 257 | 2.0 | 9.0 | 0.00 | 0.00 | 0.00 | 33 | 1009.3 |
| 20260509193047 | 58 | 334 | 3.0 | 10.0 | 0.00 | 0.00 | 0.00 | 34 | 1009.2 |
| 20260509191552 | 58 | 0 | 3.0 | 15.0 | 0.00 | 0.00 | 0.00 | 34 | 1009.0 |
| 20260509190052 | 58 | 0 | 1.0 | 15.0 | 0.00 | 0.00 | 0.00 | 36 | 1009.0 |
| 20260509184552 | 58 | 0 | 2.0 | 21.0 | 0.00 | 0.00 | 0.00 | 41 | 1008.9 |
| 20260509183048 | 57 | 274 | 1.0 | 14.0 | 0.00 | 0.00 | 0.00 | 39 | 1008.8 |
| 20260509181549 | 58 | 343 | 2.0 | 11.0 | 0.00 | 0.00 | 0.00 | 37 | 1008.7 |
| 20260509180054 | 58 | 0 | 0.0 | 11.0 | 0.00 | 0.00 | 0.00 | 40 | 1008.6 |
| 20260509174540 | 57 | 38 | 3.0 | 13.0 | 0.00 | 0.00 | 0.00 | 37 | 1008.5 |
| 20260509173040 | 57 | 279 | 5.0 | 14.0 | 0.00 | 0.00 | 0.00 | 39 | 1008.5 |
| 20260509171549 | 57 | 279 | 5.0 | 17.0 | 0.00 | 0.00 | 0.00 | 42 | 1008.3 |
| 20260509170059 | 57 | 47 | 3.0 | 12.0 | 0.00 | 0.00 | 0.00 | 40 | 1008.3 |
| 20260509164547 | 57 | 285 | 4.0 | 17.0 | 0.00 | 0.00 | 0.00 | 40 | 1008.0 |
| 20260509163059 | 57 | 309 | 5.0 | 18.0 | 0.00 | 0.00 | 0.00 | 37 | 1007.9 |
| 20260509161553 | 57 | 300 | 2.0 | 11.0 | 0.00 | 0.00 | 0.00 | 41 | 1007.8 |
| 20260509160047 | 56 | 0 | 2.0 | 11.0 | 0.00 | 0.00 | 0.00 | 43 | 1007.5 |
| 20260509154543 | 56 | 4 | 2.0 | 11.0 | 0.00 | 0.00 | 0.00 | 46 | 1007.6 |
| 20260509153046 | 56 | 258 | 1.0 | 8.0 | 0.00 | 0.00 | 0.00 | 48 | 1007.3 |
| 20260509151554 | 55 | 240 | 3.0 | 12.0 | 0.00 | 0.00 | 0.00 | 47 | 1007.1 |
| 20260509150050 | 55 | 10 | 0.0 | 7.0 | 0.00 | 0.00 | 0.00 | 51 | 1006.9 |
| 20260509144556 | 53 | 0 | 1.0 | 10.0 | 0.00 | 0.00 | 0.00 | 59 | 1006.8 |
| 20260509143049 | 53 | 342 | 1.0 | 9.0 | 0.00 | 0.00 | 0.00 | 59 | 1006.7 |
| 20260509141546 | 53 | 0 | 4.0 | 20.0 | 0.00 | 0.00 | 0.00 | 62 | 1006.2 |
| 20260509140045 | 52 | 297 | 2.0 | 13.0 | 0.00 | 0.00 | 0.00 | 66 | 1005.9 |
| 20260509134542 | 52 | 0 | 2.0 | 12.0 | 0.00 | 0.00 | 0.00 | 72 | 1005.6 |
| 20260509133059 | 51 | 320 | 3.0 | 15.0 | 0.00 | 0.00 | 0.00 | 71 | 1005.5 |
| 20260509131548 | 52 | 22 | 0.0 | 8.0 | 0.00 | 0.00 | 0.00 | 70 | 1005.2 |
| 20260509130057 | 51 | 319 | 2.0 | 11.0 | 0.00 | 0.00 | 0.00 | 73 | 1005.1 |
| 20260509124554 | 51 | 339 | 2.0 | 10.0 | 0.00 | 0.00 | 0.00 | 75 | 1004.9 |
| 20260509123101 | 51 | 331 | 3.0 | 14.0 | 0.00 | 0.00 | 0.00 | 75 | 1004.7 |
| 20260509121559 | 51 | 0 | 0.0 | 8.0 | 0.00 | 0.00 | 0.00 | 76 | 1004.4 |
| 20260509120048 | 52 | 0 | 2.0 | 9.0 | 0.00 | 0.00 | 0.00 | 76 | 1004.2 |
| 20260509114558 | 51 | 199 | 0.0 | 5.0 | 0.00 | 0.00 | 0.00 | 76 | 1003.8 |
| 20260509113047 | 51 | 0 | 0.0 | 0.0 | 0.00 | 0.00 | 0.00 | 75 | 1003.5 |
| 20260509111546 | 51 | 0 | 0.0 | 0.0 | 0.00 | 0.00 | 0.00 | 74 | 1003.3 |
| 20260509110050 | 51 | 0 | 0.0 | 1.0 | 0.00 | 0.00 | 0.00 | 74 | 1002.9 |
| 20260509104547 | 51 | 0 | 0.0 | 0.0 | 0.00 | 0.00 | 0.00 | 71 | 1002.6 |
| 20260509103048 | 52 | 0 | 0.0 | 0.0 | 0.00 | 0.00 | 0.00 | 68 | 1002.9 |
| 20260509101551 | 52 | 0 | 0.0 | 0.0 | 0.00 | 0.00 | 0.00 | 63 | 1002.4 |
| 20260509100051 | 53 | 0 | 0.0 | 0.0 | 0.00 | 0.00 | 0.00 | 62 | 1002.7 |
| 20260509094552 | 53 | 0 | 0.0 | 0.0 | 0.00 | 0.00 | 0.00 | 60 | 1003.1 |
| 20260509093053 | 53 | 0 | 0.0 | 5.0 | 0.00 | 0.00 | 0.00 | 58 | 1002.9 |
| 20260509091556 | 53 | 4 | 0.0 | 6.0 | 0.00 | 0.00 | 0.00 | 55 | 1002.8 |
| 20260509084550 | 53 | 0 | 0.0 | 1.0 | 0.00 | 0.00 | 0.00 | 53 | 1002.7 |
| 20260509083053 | 52 | 0 | 0.0 | 5.0 | 0.00 | 0.00 | 0.00 | 53 | 1002.7 |
| 20260509081547 | 51 | 323 | 0.0 | 0.0 | 0.00 | 0.00 | 0.00 | 55 | 1002.4 |
| 20260509080106 | 50 | 0 | 0.0 | 0.0 | 0.00 | 0.00 | 0.00 | 55 | 1001.6 |